| time (UTC) | temp F | wind direction | speed knots | gust knots | rain 1hr in | rain 24hr in | rain mn in | humidity % | barometer mb |
| 20260504205017 | 78 | 158 | 0.9 | 3.5 | 0.00 | 0.00 | 0.00 | 36 | 1009.5 |
| 20260504204015 | 77 | 158 | 1.7 | 4.3 | 0.00 | 0.00 | 0.00 | 36 | 1009.6 |
| 20260504203015 | 78 | 158 | 2.6 | 5.2 | 0.00 | 0.00 | 0.00 | 34 | 1009.6 |
| 20260504202015 | 78 | 158 | 1.7 | 4.3 | 0.00 | 0.00 | 0.00 | 34 | 1009.7 |
| 20260504201015 | 77 | 135 | 1.7 | 4.3 | 0.00 | 0.00 | 0.00 | 36 | 1009.7 |
| 20260504200116 | 77 | 158 | 0.9 | 3.5 | 0.00 | 0.00 | 0.00 | 36 | 1009.8 |
| 20260504195037 | 76 | 135 | 1.7 | 3.5 | 0.00 | 0.00 | 0.00 | 37 | 1009.7 |
| 20260504194055 | 76 | 158 | 1.7 | 4.3 | 0.00 | 0.00 | 0.00 | 39 | 1009.7 |
| 20260504193017 | 76 | 135 | 1.7 | 4.3 | 0.00 | 0.00 | 0.00 | 38 | 1009.8 |
| 20260504192017 | 76 | 158 | 1.7 | 4.3 | 0.00 | 0.00 | 0.00 | 39 | 1009.9 |
| 20260504191037 | 76 | 158 | 1.7 | 4.3 | 0.00 | 0.00 | 0.00 | 39 | 1009.9 |
| 20260504190015 | 75 | 135 | 1.7 | 3.5 | 0.00 | 0.00 | 0.00 | 40 | 1009.9 |
| 20260504185016 | 75 | 158 | 1.7 | 3.5 | 0.00 | 0.00 | 0.00 | 40 | 1010.0 |
| 20260504184057 | 76 | 158 | 1.7 | 3.5 | 0.00 | 0.00 | 0.00 | 41 | 1010.0 |
| 20260504183018 | 76 | 158 | 1.7 | 3.5 | 0.00 | 0.00 | 0.00 | 40 | 1009.9 |
| 20260504182015 | 76 | 203 | 0.9 | 3.5 | 0.00 | 0.00 | 0.00 | 42 | 1009.9 |
| 20260504181037 | 76 | 68 | 0.9 | 3.5 | 0.00 | 0.00 | 0.00 | 41 | 1010.0 |
| 20260504180016 | 76 | 135 | 0.9 | 3.5 | 0.00 | 0.00 | 0.00 | 41 | 1010.0 |
| 20260504175015 | 75 | 68 | 0.9 | 2.6 | 0.00 | 0.00 | 0.00 | 44 | 1010.0 |
| 20260504174015 | 74 | 68 | 0.9 | 3.5 | 0.00 | 0.00 | 0.00 | 45 | 1010.0 |
| 20260504173037 | 73 | 68 | 0.9 | 3.5 | 0.00 | 0.00 | 0.00 | 47 | 1010.1 |
| 20260504172015 | 72 | 68 | 0.9 | 2.6 | 0.00 | 0.00 | 0.00 | 47 | 1010.1 |
| 20260504171017 | 71 | 68 | 0.9 | 3.5 | 0.00 | 0.00 | 0.00 | 49 | 1010.1 |
| 20260504151035 | 62 | 0.0 | 0.9 | 0.00 | 0.00 | 0.00 | 66 | 1009.9 | |
| 20260504141015 | 55 | 0.0 | 0.0 | 0.00 | 0.00 | 0.00 | 79 | 1009.3 | |
| 20260504081039 | 57 | 0.0 | 0.0 | 0.00 | 0.00 | 0.00 | 71 | 1008.5 | |
| 20260504050019 | 64 | 0.0 | 0.0 | 0.00 | 0.00 | 0.00 | 55 | 1009.0 | |
| 20260504045037 | 64 | 0.0 | 0.0 | 0.00 | 0.00 | 0.00 | 56 | 1009.1 | |
| 20260504044017 | 64 | 0.0 | 0.0 | 0.00 | 0.00 | 0.00 | 56 | 1009.1 | |
| 20260504043019 | 65 | 0.0 | 0.0 | 0.00 | 0.00 | 0.00 | 52 | 1009.1 | |
| 20260504042037 | 66 | 0.0 | 0.0 | 0.00 | 0.00 | 0.00 | 51 | 1009.0 | |
| 20260504041038 | 66 | 0.0 | 0.0 | 0.00 | 0.00 | 0.00 | 49 | 1009.0 | |
| 20260504040018 | 66 | 0.0 | 0.0 | 0.00 | 0.00 | 0.00 | 49 | 1009.0 | |
| 20260504035100 | 67 | 0.0 | 0.0 | 0.00 | 0.00 | 0.00 | 49 | 1008.9 | |
| 20260504034017 | 68 | 0.0 | 0.0 | 0.00 | 0.00 | 0.00 | 48 | 1008.9 | |
| 20260504033017 | 68 | 0.0 | 0.0 | 0.00 | 0.00 | 0.00 | 47 | 1008.9 | |
| 20260504032017 | 68 | 0.0 | 0.0 | 0.00 | 0.00 | 0.00 | 47 | 1009.0 | |
| 20260504031017 | 69 | 0.0 | 0.0 | 0.00 | 0.00 | 0.00 | 47 | 1009.0 | |
| 20260504030017 | 70 | 0.0 | 0.0 | 0.00 | 0.00 | 0.00 | 45 | 1009.0 | |
| 20260504025017 | 71 | 0.0 | 0.0 | 0.00 | 0.00 | 0.00 | 44 | 1009.0 | |
| 20260504024018 | 72 | 0.0 | 0.9 | 0.00 | 0.00 | 0.00 | 43 | 1008.9 | |
| 20260504023159 | 73 | 0.0 | 2.6 | 0.00 | 0.00 | 0.00 | 42 | 1008.9 | |
| 20260504022017 | 74 | 225 | 0.9 | 4.3 | 0.00 | 0.00 | 0.00 | 40 | 1009.1 |
| 20260504021037 | 75 | 225 | 0.9 | 4.3 | 0.00 | 0.00 | 0.00 | 40 | 1009.2 |
| 20260504020019 | 77 | 0.0 | 1.7 | 0.00 | 0.00 | 0.00 | 39 | 1009.2 | |
| 20260504015017 | 77 | 0.0 | 0.9 | 0.00 | 0.00 | 0.00 | 39 | 1009.2 | |
| 20260504014018 | 78 | 0.0 | 0.0 | 0.00 | 0.00 | 0.00 | 36 | 1009.3 | |
| 20260504013017 | 78 | 68 | 0.9 | 3.5 | 0.00 | 0.00 | 0.00 | 32 | 1009.3 |
| 20260504012018 | 78 | 68 | 1.7 | 5.2 | 0.00 | 0.00 | 0.00 | 31 | 1009.4 |
| 20260504011017 | 79 | 68 | 1.7 | 6.1 | 0.00 | 0.00 | 0.00 | 30 | 1009.6 |
| 20260504010017 | 79 | 90 | 2.6 | 6.1 | 0.00 | 0.00 | 0.00 | 31 | 1009.7 |
| 20260504005019 | 78 | 68 | 2.6 | 7.0 | 0.00 | 0.00 | 0.00 | 31 | 1009.7 |
| 20260504004037 | 78 | 68 | 1.7 | 4.3 | 0.00 | 0.00 | 0.00 | 31 | 1009.9 |
| 20260504003017 | 79 | 68 | 1.7 | 7.0 | 0.00 | 0.00 | 0.00 | 31 | 1010.0 |
| 20260504002018 | 79 | 68 | 2.6 | 7.0 | 0.00 | 0.00 | 0.00 | 32 | 1010.1 |
| 20260504001018 | 79 | 68 | 2.6 | 6.1 | 0.00 | 0.00 | 0.00 | 31 | 1010.2 |
| 20260504000018 | 79 | 68 | 1.7 | 5.2 | 0.00 | 0.00 | 0.00 | 32 | 1010.3 |
| 20260503235017 | 78 | 68 | 1.7 | 7.0 | 0.00 | 0.00 | 0.00 | 31 | 1010.4 |
| 20260503234015 | 78 | 45 | 2.6 | 7.0 | 0.00 | 0.00 | 0.00 | 32 | 1010.6 |
| 20260503233017 | 78 | 68 | 2.6 | 8.7 | 0.00 | 0.00 | 0.00 | 32 | 1010.7 |
| 20260503232017 | 78 | 90 | 3.5 | 7.8 | 0.00 | 0.00 | 0.00 | 32 | 1010.8 |
| 20260503231017 | 78 | 23 | 2.6 | 6.1 | 0.00 | 0.00 | 0.00 | 32 | 1010.9 |
| 20260503230016 | 77 | 68 | 3.5 | 9.6 | 0.00 | 0.00 | 0.00 | 33 | 1010.9 |
| 20260503225017 | 77 | 68 | 3.5 | 8.7 | 0.00 | 0.00 | 0.00 | 34 | 1011.1 |
| 20260503224016 | 77 | 45 | 2.6 | 7.0 | 0.00 | 0.00 | 0.00 | 34 | 1011.2 |
| 20260503223016 | 77 | 68 | 3.5 | 9.6 | 0.00 | 0.00 | 0.00 | 34 | 1011.3 |
| 20260503222017 | 77 | 68 | 3.5 | 8.7 | 0.00 | 0.00 | 0.00 | 34 | 1011.5 |
| 20260503221015 | 77 | 45 | 2.6 | 7.8 | 0.00 | 0.00 | 0.00 | 34 | 1011.6 |
| 20260503220015 | 76 | 23 | 4.3 | 10.4 | 0.00 | 0.00 | 0.00 | 36 | 1011.6 |
| 20260503215015 | 77 | 90 | 3.5 | 9.6 | 0.00 | 0.00 | 0.00 | 35 | 1011.8 |
| 20260503214017 | 77 | 90 | 3.5 | 8.7 | 0.00 | 0.00 | 0.00 | 36 | 1011.8 |
| 20260503213015 | 76 | 0 | 3.5 | 9.6 | 0.00 | 0.00 | 0.00 | 37 | 1012.0 |
| 20260503212015 | 75 | 45 | 2.6 | 7.0 | 0.00 | 0.00 | 0.00 | 39 | 1012.1 |
| 20260503211016 | 74 | 0 | 3.5 | 10.4 | 0.00 | 0.00 | 0.00 | 39 | 1012.2 |
| 20260503210015 | 74 | 68 | 3.5 | 8.7 | 0.00 | 0.00 | 0.00 | 42 | 1012.4 |
| 20260503205057 | 73 | 45 | 3.5 | 7.8 | 0.00 | 0.00 | 0.00 | 42 | 1012.5 |